Location: Bella Coola
(52.3721°N, 126.7539°W)
Time: 01:24:37
(UTC-07:00)

ISS - Pass Details

Date: 25 May 2019
Orbit: 407 x 419 km, 51.6° (Epoch: 26 June)

Event Time Altitude Azimuth Distance (km) Brightness Sun altitude
Rises 23:36:31 0° 278° (W) 2,361 0.6 -12.9°
Reaches altitude 10° 23:38:37 10° 275° (W) 1,498 -0.5 -13.0°
Maximum altitude 23:41:57 63° 194° (SSW) 472 -3.8 -13.2°
Enters shadow 23:44:12 19° 117° (ESE) 1,070 -2.1 -13.4°
